Theta_e
315 316 317 319 319 321 328 327 323 321 319 317 319 316 313 312 314 315 316 316 316 316 316 314 315 315 315 316 315 315 317 316 319 319 320 318 322 321 320 323 321 320 319 320 319 319 318
313 314 315 317 319 318 320 326 327 322 321 319 318 319 317 313 313 315 316 316 316 316 315 314 316 315 317 316 313 314 315 319 320 320 320 321 322 322 323 324 322 321 322 321 319 319 317
310 311 313 314 316 318 318 320 326 325 322 321 318 318 319 318 314 314 316 316 316 315 314 315 318 317 318 314 314 315 316 317 316 315 319 320 321 322 322 322 321 322 321 318 316 317 318
307 307 310 312 314 315 317 318 320 326 323 322 321 318 317 320 317 315 315 316 316 315 314 318 318 318 318 314 314 314 314 314 314 315 315 320 321 322 323 322 320 321 318 316 314 318 319
307 308 307 310 313 314 315 317 317 322 325 323 322 321 318 317 320 318 316 316 315 314 316 317 317 317 317 314 314 315 317 318 320 319 316 321 321 322 322 321 317 320 315 318 319 319 321
305 306 308 307 308 312 314 315 317 318 321 325 323 322 321 318 319 319 317 316 315 315 318 318 316 314 313 311 315 320 320 321 321 320 321 321 321 324 323 319 320 319 321 321 323 321 322
304 304 307 308 307 306 312 313 315 317 317 321 324 323 322 320 318 319 316 315 316 316 317 315 315 311 312 316 318 320 321 320 320 321 322 322 324 323 322 323 317 321 322 324 323 322 322
304 305 304 306 308 308 307 312 314 314 317 317 321 324 323 321 319 318 316 314 313 312 317 315 316 315 315 315 319 318 321 322 322 325 321 324 323 321 321 323 323 323 324 325 323 320 321
303 304 305 304 305 307 309 309 312 314 315 316 317 321 322 322 319 317 315 314 314 315 311 313 315 315 316 315 318 319 321 319 321 322 322 324 323 320 322 323 325 325 325 325 326 321 320
303 303 304 304 304 306 308 308 308 313 315 315 315 318 322 320 317 317 315 315 315 310 314 314 318 317 315 316 316 316 317 318 318 323 321 323 320 323 324 324 324 326 323 325 323 323 326
303 303 303 303 304 304 305 307 307 309 313 315 315 316 321 319 317 316 315 315 316 311 321 316 318 315 316 313 316 316 316 318 320 321 321 324 321 323 325 325 323 326 320 322 322 323 323
303 302 303 303 303 303 302 304 306 308 311 314 314 314 318 318 317 316 315 314 311 314 320 321 320 320 319 317 321 318 316 317 316 319 318 321 317 319 322 318 322 319 319 317 317 321 326
303 302 302 302 303 303 302 302 302 309 309 314 314 314 315 318 317 316 314 310 312 318 319 322 324 321 321 320 322 321 319 318 321 324 324 321 320 321 318 320 318 320 321 326 326 326 328
303 302 302 302 302 303 302 301 303 307 308 311 314 314 317 317 317 315 314 312 318 317 320 319 322 322 324 322 323 322 322 320 318 320 322 325 326 321 320 322 321 320 322 328 331 327 324
303 302 302 302 302 302 302 301 301 302 307 307 314 315 314 317 315 314 313 315 317 317 318 320 323 323 324 324 324 321 324 323 321 320 325 325 324 319 319 320 320 319 320 320 322 318 325
303 302 302 302 301 302 302 302 299 301 306 306 312 314 315 316 315 314 314 316 316 316 318 321 324 322 324 325 324 323 324 322 323 321 318 322 325 317 319 319 320 319 318 323 323 329 329
303 302 302 302 301 301 301 301 301 300 303 307 310 315 314 316 316 317 317 313 317 317 318 321 321 322 323 325 324 324 322 320 322 322 319 318 318 316 318 322 324 320 320 320 322 324 328
302 302 302 302 301 301 299 302 301 301 303 308 310 314 314 315 319 314 315 319 317 318 318 320 319 319 322 323 324 324 322 321 320 321 323 318 319 320 317 313 315 322 322 322 328 324 322
302 302 302 301 301 300 299 301 302 302 303 308 308 311 310 315 318 315 318 318 319 319 319 321 321 320 317 323 326 324 322 317 318 322 324 321 324 324 322 317 313 318 319 321 322 320 324
303 302 301 301 301 301 299 301 302 301 302 304 307 308 304 310 315 316 318 319 320 318 319 320 319 319 319 320 317 324 322 312 312 320 319 321 320 326 327 322 319 317 316 319 322 325 325
303 302 301 301 301 301 299 301 302 301 302 303 305 305 308 311 314 315 316 319 319 320 318 318 319 320 320 320 318 318 317 310 309 315 318 320 324 318 315 311 311 314 317 316 321 323 325
301 302 301 301 301 301 300 299 301 301 302 302 300 302 306 311 313 316 314 315 319 319 319 320 320 320 319 321 320 319 313 313 314 309 312 310 318 310 315 309 309 312 310 314 318 320 320
299 301 301 301 301 301 301 299 300 301 301 302 303 303 307 309 312 315 314 316 316 317 316 319 319 319 319 319 317 311 312 312 312 311 312 314 313 313 321 309 308 313 312 311 315 314 318
303 300 301 301 301 301 301 301 301 301 301 302 302 304 306 310 312 312 314 314 317 316 314 315 317 317 312 308 309 310 309 310 310 310 310 311 318 317 320 310 317 317 306 312 313 313 310
300 302 299 301 302 302 301 302 301 301 302 301 303 304 306 308 311 312 312 315 314 315 313 313 311 310 308 310 312 312 311 312 312 309 311 310 314 315 317 316 317 314 306 307 308 311 307
296 297 298 302 301 301 301 302 302 301 301 301 303 303 305 307 310 311 312 313 314 310 304 304 303 304 306 306 309 314 315 315 314 311 307 310 311 316 311 318 319 314 304 304 304 311 305
297 296 296 297 302 301 301 301 301 301 301 302 302 304 303 303 303 309 311 312 308 308 305 302 303 305 303 308 310 313 314 310 314 313 311 311 310 315 314 314 312 308 300 304 311 312 303
298 297 296 297 297 299 301 303 303 303 304 303 298 302 303 299 299 301 304 305 303 306 306 300 304 301 303 309 310 307 309 307 310 308 309 311 311 311 308 311 315 302 300 306 308 301 304
296 298 298 297 297 297 297 299 300 300 302 302 296 298 300 297 296 296 296 298 301 304 301 301 304 302 303 304 304 304 303 303 306 309 301 311 310 310 308 309 301 300 300 300 300 303 304
Wind_Speed
25 26 31 29 32 26 41 41 39 37 36 35 33 31 29 27 24 21 18 15 12 9 6 5 7 10 5 3 7 5 3 6 2 2 6 3 4 1 3 2 2 1 1 4 6 11 7
25 26 26 29 27 30 28 37 41 39 37 36 34 33 30 28 25 22 19 16 12 8 5 3 4 6 2 3 5 5 4 1 4 6 5 5 3 1 4 2 0 1 3 8 7 9 6
28 27 25 28 31 27 31 27 38 41 41 38 36 34 31 29 27 23 21 16 13 9 6 1 2 3 2 13 6 7 7 5 3 2 2 3 5 3 1 2 1 1 5 7 3 2 2
33 33 29 26 27 31 27 31 29 39 44 41 37 35 33 30 27 24 20 16 13 9 5 4 1 0 6 8 10 14 16 13 13 9 9 4 2 4 1 0 3 1 1 2 1 5 3
32 32 34 29 26 27 32 28 32 29 42 42 40 36 35 32 28 25 21 17 13 9 7 4 0 0 8 4 6 5 10 5 7 6 9 7 3 3 1 1 2 3 3 2 5 4 4
35 33 34 35 32 25 28 32 26 35 28 40 44 39 36 34 31 27 23 19 12 11 8 4 3 4 5 3 3 4 9 11 4 9 6 2 3 3 2 3 5 2 2 2 3 1 6
39 39 33 33 34 36 26 30 32 29 32 32 35 41 39 37 34 32 31 22 8 2 7 9 8 3 3 3 2 4 8 9 6 3 5 4 5 9 13 12 3 4 2 3 4 7 5
42 39 37 35 32 32 33 27 32 32 30 31 32 35 42 38 38 39 38 7 9 5 5 21 7 9 7 2 1 4 13 5 5 5 8 4 9 12 6 10 7 5 4 6 8 2 4
44 41 39 36 35 33 31 33 28 31 31 30 29 33 37 40 42 41 32 18 15 5 2 3 11 10 7 9 5 10 12 5 4 7 12 7 3 6 12 8 10 8 7 4 7 8 2
45 43 39 37 34 34 30 31 32 28 33 31 31 31 35 38 37 34 20 24 13 8 1 5 8 9 9 9 7 11 15 5 4 12 9 4 4 8 11 10 12 7 11 11 6 3 3
46 45 42 39 35 32 31 30 32 34 33 34 34 29 39 40 18 21 24 29 9 5 5 6 6 3 11 13 10 10 9 2 8 7 6 6 8 12 7 6 15 7 6 10 5 4 2
47 45 43 40 38 35 35 32 33 33 32 35 32 32 34 37 27 24 36 29 14 5 9 4 7 9 12 11 3 4 11 2 4 5 1 5 2 8 8 6 17 6 5 4 2 2 5
47 45 43 41 39 37 35 35 35 30 32 34 33 34 42 32 14 45 51 16 5 6 3 8 6 10 9 10 5 5 12 18 13 9 13 5 6 3 4 6 9 9 7 3 3 4 6
46 44 42 41 39 37 36 35 34 34 31 29 33 32 37 24 34 55 39 9 6 11 10 5 8 14 11 11 8 5 12 13 17 4 3 13 8 17 8 7 9 17 13 5 7 5 2
46 44 42 41 40 37 35 36 34 36 33 32 30 31 25 21 51 52 14 9 11 8 10 12 14 9 9 7 7 7 11 11 15 15 11 8 7 4 6 7 12 7 10 4 6 2 1
45 44 43 42 40 39 37 36 37 35 37 34 27 20 23 28 53 35 14 12 12 7 9 15 7 7 15 13 8 13 13 10 8 18 4 6 2 2 7 5 9 6 12 5 1 6 6
43 42 42 41 41 39 38 38 37 37 37 36 25 6 19 38 41 13 12 8 9 12 7 10 8 7 7 9 11 11 12 2 16 18 15 6 2 2 8 10 16 7 7 2 5 5 6
41 41 41 40 41 40 40 39 40 38 40 38 8 9 31 49 15 6 13 10 10 13 9 4 4 5 9 13 12 12 14 7 11 16 19 8 3 4 6 4 5 18 15 14 7 6 4
39 41 41 41 40 41 41 40 40 40 45 29 8 5 16 42 15 6 7 11 16 16 18 9 8 5 4 9 6 8 10 3 10 16 18 11 5 4 2 3 2 8 11 15 10 3 10
37 39 40 40 39 40 41 40 42 43 42 31 5 3 3 7 19 16 8 19 16 17 21 10 7 6 5 6 1 11 7 2 1 9 10 16 5 8 12 3 5 9 10 13 16 9 14
36 38 40 40 39 39 40 41 44 45 45 36 4 5 4 8 20 17 18 12 25 11 7 20 10 14 13 6 7 5 5 4 3 4 5 9 8 6 3 2 2 4 14 15 18 24 18
34 34 39 41 40 39 40 41 42 44 44 20 4 3 1 6 23 23 17 7 22 12 14 20 14 20 15 13 17 8 7 5 6 3 5 3 2 3 5 4 5 6 7 15 21 19 16
19 23 40 42 40 38 39 40 41 43 39 6 3 2 2 6 16 20 11 10 20 15 3 14 17 11 16 19 4 4 3 4 7 9 6 8 5 3 7 5 3 7 22 18 13 13 19
14 37 25 38 39 39 39 38 41 40 41 9 3 3 1 4 15 19 23 19 15 21 8 6 13 10 4 15 9 9 8 9 5 4 5 6 16 7 4 8 9 11 2 18 22 16 16
47 31 28 33 32 36 40 40 38 38 38 28 9 3 2 4 12 13 19 14 13 14 6 8 3 7 13 8 4 3 1 2 4 2 2 4 12 4 5 8 9 6 5 7 12 17 15
39 33 33 20 29 33 35 33 34 37 34 30 23 6 2 5 6 6 16 18 7 6 4 3 5 4 6 3 3 6 6 4 6 5 0 2 3 10 4 6 11 4 5 10 7 13 10
26 26 23 27 14 30 32 36 35 37 39 41 11 25 2 4 1 4 6 11 6 6 4 5 6 2 4 4 3 4 5 2 9 11 7 5 4 15 9 6 5 6 4 8 10 5 4
29 25 26 24 27 30 28 26 33 36 34 26 11 18 5 3 3 5 2 6 5 4 6 5 4 1 2 4 5 5 4 7 4 5 8 11 9 4 4 4 9 8 8 9 4 2 4
32 32 30 27 20 21 23 22 29 30 33 29 7 13 20 5 3 6 10 7 3 6 7 8 1 6 4 4 3 4 3 4 6 6 3 4 5 7 8 4 1 9 2 2 1 2 2
Wind_Direction
267 262 260 266 260 251 231 233 229 228 228 226 224 222 221 219 220 222 222 225 230 241 268 306 333 349 6 15 256 211 244 290 357 74 59 62 60 72 106 90 337 110 315 293 276 289 263
269 264 260 256 264 259 248 238 232 227 226 226 223 221 220 219 215 216 219 219 224 229 245 290 342 358 70 277 244 237 229 157 93 81 61 63 102 96 100 121 220 298 274 283 281 270 263
265 265 263 258 254 257 249 245 237 229 226 223 221 220 218 217 216 211 212 212 213 216 218 211 11 25 117 241 233 231 235 207 223 319 82 83 69 88 141 146 338 320 305 317 258 268 267
255 261 262 260 256 257 259 249 246 233 224 222 219 218 216 213 213 208 206 201 201 204 189 150 26 52 246 257 247 254 253 266 255 248 212 177 50 96 71 12 29 289 82 322 8 327 29
253 250 256 255 253 248 250 250 245 236 232 221 220 215 215 211 207 204 196 189 185 179 167 147 92 28 261 272 257 244 225 175 141 159 164 129 103 93 55 79 317 20 272 225 305 44 359
248 249 245 252 253 252 245 244 248 241 240 230 220 215 212 209 201 193 183 169 161 153 145 147 119 309 244 212 165 166 144 153 119 132 101 93 76 113 125 162 254 216 218 206 255 248 330
242 240 242 244 248 252 250 245 240 242 237 235 228 217 213 204 196 183 159 127 125 204 208 196 180 235 319 299 252 186 159 134 117 101 150 180 179 204 210 204 171 128 149 249 255 276 304
238 235 235 237 242 240 245 241 240 238 236 234 243 233 217 201 195 180 170 171 166 165 209 233 221 254 253 330 177 191 166 159 173 158 134 140 230 225 180 193 195 211 242 261 281 295 221
234 233 232 233 236 238 238 239 235 235 233 229 231 234 222 200 190 175 178 171 159 127 29 232 213 228 224 173 226 194 174 162 172 149 190 183 154 166 177 167 194 216 214 201 248 329 247
230 229 230 228 230 234 235 236 238 236 233 231 228 232 223 202 169 168 176 173 154 113 304 245 203 234 181 154 240 207 194 159 180 188 176 230 197 135 171 198 188 216 211 222 234 297 264
225 225 226 226 224 226 232 236 238 238 232 227 222 224 221 192 156 174 174 172 155 79 219 188 164 141 159 175 132 211 172 112 171 165 157 207 169 178 179 196 177 225 165 192 194 215 297
221 220 221 222 222 225 230 234 233 235 233 224 221 217 216 184 165 174 155 154 103 131 229 200 138 163 154 206 193 103 178 102 142 147 149 196 164 178 199 169 176 140 116 81 81 167 248
216 216 217 218 220 222 224 228 231 230 229 222 218 214 203 187 168 164 148 112 129 209 133 188 169 164 165 173 187 152 172 186 184 185 220 186 213 181 156 135 182 195 153 148 192 203 246
212 212 213 215 217 217 220 224 225 225 226 227 217 210 211 187 172 155 150 136 182 174 188 142 159 167 178 148 203 155 153 181 211 194 129 199 231 197 174 183 178 194 193 176 201 198 186
208 208 210 212 214 215 216 221 222 223 224 223 216 204 200 207 161 155 145 189 181 177 166 156 141 171 179 184 157 162 184 194 195 192 194 174 242 194 208 172 158 172 207 166 106 25 230
206 207 207 209 211 213 213 217 220 219 217 215 209 192 204 189 164 165 165 181 177 198 165 148 161 178 184 175 154 181 176 189 197 197 218 189 166 195 170 173 209 186 158 169 145 186 225
205 206 205 206 208 210 212 217 218 216 213 209 203 208 185 178 175 187 189 167 176 192 186 167 168 155 183 171 172 185 191 205 194 186 196 148 197 136 142 201 196 177 192 159 179 188 212
205 207 206 205 206 208 213 214 216 212 209 201 204 219 167 168 196 187 198 160 155 195 179 186 161 120 169 169 175 190 197 211 173 162 194 181 160 184 193 157 198 214 214 200 199 186 239
206 205 206 205 205 207 212 213 212 210 202 182 208 204 200 175 204 186 161 199 173 176 195 174 181 169 159 167 174 185 192 181 153 167 170 172 190 154 211 220 175 213 204 210 217 120 207
208 205 206 206 205 207 211 211 209 209 203 216 193 195 187 217 202 200 169 196 179 176 187 172 160 125 133 178 274 181 180 90 173 182 163 166 160 211 212 176 150 202 198 200 201 219 233
214 210 207 206 204 205 209 209 207 206 200 196 176 193 230 189 193 179 192 182 186 185 198 183 186 191 174 159 170 180 148 130 65 145 156 175 204 188 218 162 196 233 215 193 199 216 208
220 215 209 204 203 204 206 212 212 209 199 194 152 181 148 155 195 189 181 206 178 166 162 188 201 203 198 206 198 165 136 175 168 166 158 17 190 115 232 201 200 240 239 206 213 221 237
247 198 206 204 200 201 206 210 209 214 202 186 128 241 280 181 179 193 172 171 202 177 228 183 194 165 193 213 142 99 75 132 133 154 160 140 130 143 245 136 135 264 229 213 209 213 216
230 189 198 202 199 203 208 210 211 210 201 189 229 145 200 148 178 194 191 200 182 188 136 181 172 163 190 111 97 60 55 54 137 124 142 162 202 196 199 144 221 242 245 217 221 221 209
49 151 188 197 196 199 204 206 209 209 199 192 226 221 121 140 180 178 187 187 183 205 173 149 133 139 149 99 91 114 55 75 209 143 233 270 182 179 190 203 285 280 214 186 182 238 209
45 48 44 200 196 202 208 206 201 211 200 191 223 229 226 124 185 118 182 187 169 144 103 85 48 114 88 91 129 174 190 168 182 183 11 132 288 215 148 221 228 244 187 155 137 258 196
51 51 51 47 119 203 206 207 204 204 198 192 197 214 244 111 335 111 159 175 120 137 108 123 141 118 22 136 157 180 193 196 177 183 161 162 175 211 202 227 254 236 153 144 162 230 234
58 63 55 55 59 70 103 149 164 173 185 176 136 181 164 81 30 10 118 147 114 172 151 149 113 43 119 156 172 171 171 192 176 162 172 175 161 174 160 196 248 156 147 189 182 191 184
55 56 64 80 88 79 77 97 111 134 154 148 108 121 120 86 93 48 52 61 323 141 127 173 83 139 163 127 146 128 153 181 172 188 183 183 187 173 190 208 79 180 15 104 132 120 199